Regional Weather Roundup
Issued by NWS Portland, ME

Home | Current Version | Previous Version | Text Only | Print | Product List | Glossary On
Versions: 1 2 3 4 5 6 7 8 9 10 11 12 13 14 15 16 17 18 19 20 21 22 23 24 25 26 27 28 29 30 31 32 33 34 35 36 37 38 39 40 41 42 43 44 45 46 47 48 49 50
551
ASUS41 KGYX 240510
RWRGYX
WEATHER ROUNDUP FOR MAINE AND NEW HAMPSHIRE
NATIONAL WEATHER SERVICE GRAY ME
1200 AM EST TUE JAN 24 2017

MEZ002-005-006-010-012-015-018-020-021-024-026-027-029-240600-
MAINE

CITY           SKY/WX    TMP DP  RH WIND       PRES   REMARKS
PORTLAND       CLOUDY    31  21  66 NE17G24   29.96F WCI  19
SANFORD        FLURRIES  30  24  78 NE20G26   29.91F WCI  17
BAR HARBOR     CLOUDY    30  22  72 NE13      30.05F WCI  20
WISCASSET      CLOUDY    32  21  64 NE6       30.00F
ROCKLAND       MOCLDY    32  25  75 NE13      30.00F
FRYEBURG       CLOUDY    29  18  63 N12       30.00F WCI  19
LEWISTONAUBURN CLOUDY    28  20  71 N17       29.99F WCI  16
AUGUSTA        CLOUDY    27  15  61 N14       30.02F WCI  16
WATERVILLE     MOCLDY    27  17  66 NE12G18   30.01F WCI  17
BANGOR         CLOUDY    27  17  66 N10       30.08F WCI  17
GREENVILLE       N/A     23  13  65 E14       30.01F WCI  11
MILLINOCKET    PTCLDY    24  12  60 NE7       30.13F
HOULTON        CLOUDY    14  11  87 N5        30.14F
PRESQUE ISLE   CLOUDY    11   8  88 CALM      30.17F
FRENCHVILLE    CLOUDY    22   9  57 NE6       30.14F
CARIBOU        CLOUDY    21   9  59 NE5       30.16S
$$

NHZ002-005-008-009-011-012-014-240600-
NEW HAMPSHIRE

CITY           SKY/WX    TMP DP  RH WIND       PRES   REMARKS
PORTSMOUTH     LGTSLEET  31  26  82 NE14G23   29.86F
ROCHESTER      FRZ RAIN  30  23  75 NE14G22   29.88F WCI  19
NASHUA         LGT SNOW  30  29  96 NE8G18    29.84F FOG
MANCHESTER     FLURRIES  31  24  75 N16G22    29.84F WCI  20
CONCORD        MIX PCPN  30  23  75 NE16G25   29.88F WCI  19
LACONIA        FLURRIES  29  21  72 NE12G20   29.92F WCI  19
PLYMOUTH       FLURRIES  32  23  70 SE7G17    29.94F
BERLIN         CLOUDY    27  16  63 CALM      29.95F
WHITEFIELD     CLOUDY    29  16  58 NE10G18   29.89F WCI  20
JAFFREY        LGT SNOW  27  23  85 N9G22     29.77F VSB 1
KEENE          FLURRIES  30  26  85 N10G20    29.80F
LEBANON        LGT SNOW  31  23  72 NE8G18    29.90F
MT WASHINGTON  CLOUDY    12  -2  52 E61G72      N/A  WCI -16
$$

VTZ005-007-008-240600-
VERMONT

CITY           SKY/WX    TMP DP  RH WIND       PRES   REMARKS
ST JOHNSBURY     N/A     30  17  58 MISG      29.90F
MONTPELIER     CLOUDY    28  21  75 CALM      29.92F
BURLINGTON     LGTSLEET  33  24  69 E6        29.90S
$$

MAZ007-012-024-CTZ003-RIZ002-NYZ038-NYZ072-240600-
SOUTHERN NEW ENGLAND AND NY

CITY           SKY/WX    TMP DP  RH WIND       PRES   REMARKS
BOSTON         RAIN      37  36  96 NE28G40   29.76F FOG
WORCESTER      MIX PCPN  29  27  92 NE14G32   29.68F FOG     WCI  18
NANTUCKET      LGT RAIN  45  42  89 E25G46    29.52F FOG
PROVIDENCE     RAIN      38  35  89 NE25G35   29.64F FOG
HARTFORD       SLEET     33  30  88 N23G32    29.65F FOG
ALBANY         FRZ RAIN  32  29  88 N10G18    29.75F FOG
NEW YORK CITY  HVY RAIN  39  35  86 NE28G36   29.47F FOG
$$

ANZ081-ANZ082-ANZ150-NHZ014-MEZ023>029-240600-
COASTAL MARINE OBSERVATIONS

STATION/POSITION TIME  TEMP    WIND        PRES    WAVE
                       AIR SEA DIR/SP/G            HT/PER
                 (UTC) (F)     (DEG/KT/KT) (MB)    (FT/S)
MOUNT DESERT ROC 0500   35                 1015.3F
MATINICUS ROCK   0400   36      80/ 36/ 39 1014.6F
ISLE OF SHOALS   0400   37      50/ 38/ 42 1010.1F
CASHES LEDGE BUO 0450   38 45   80/ 29/ 37 1011.2F  12/ 8
GEORGES BANK BUO 0350   47 43              1005.0   15/ 9
$$

.............KEY..............
   WCI - WIND CHILL
   TC  - TEMPERATURE IN CELSIUS
   VSB - VISIBILITY IN MILES
   HX  - HEAT INDEX
   FAIR- INDICATES FEW OR NO CLOUDS BELOW 12,000 FT, WITH NO
         SIGNIFICANT WEATHER AND/OR OBSTRUCTIONS TO VISIBILITY.






USA.gov is the U.S. government's official web portal to all federal, state and local government web resources and services.